Tracking 18917 objects as of 16-Jan-2018
HD Live streaming from Space Station
objects crossing your sky now

INTELSAT 901

Track INTELSAT 901 now!
INTELSAT 901 is classified as:


NORAD ID: 26824
Int'l Code: 2001-024A
Perigee: 35,785.5 km
Apogee: 35,803.6 km
Inclination: 0.0 °
Period: 1,436.1 minutes
Semi major axis: 42165 km
RCS: 15.9919 m2 (large)
Launch date: June 9, 2001
Source: International Telecommunications Satellite Organization (ITSO)
Launch site: FRENCH GUIANA (FRGUI)

72 C-band, 22 Ku-band, broadcasting, business services, direct-to-home TV broadcasting, telecommunications, VSAT networks; Atlantic Ocean region.
aabbcc
Your satellite tracking list
Your tracking list is empty




NASA's NSSDC Master Catalog

Two Line Element Set (TLE):
1 26824U 01024A   18015.20601589 -.00000140  00000-0  00000+0 0  9990
2 26824   0.0238  46.7576 0002145 239.2347 244.7850  1.00268951 60765
Source of the keplerian elements: AFSPC